Retour au catalogue

STARLINK-32236

ActifCommunicationsVLEO
NORAD 60418·PAYLOAD·🇺🇸 United States

Lancé Aug 10, 2024 depuis Cape Canaveral Space Force Station

Loading…

Prochains Passages (prochaines 24 heures)

TLE

FraisSource: CelesTrak SupGP

Époque: Sep 14, 2026, 20:39 UTC

1 60418C 24141W   26257.86090278  .00013874  00000+0  40996-3 0  2573
2 60418  53.1585  80.1028 0001206  78.8105  49.9658 15.34380003    14

Suivez STARLINK-32236 en temps réel avec AllMySat

Download on the App Store